EHI
0 0 0 0 0 0 0 0 0 0 0 0 0 0 0 0 0 0 0 1 3 4 3 3 3 5 6 6 6 6 7 7 8 7 6 4 1 0 0 0 1 2 2 3 3 3 3 3 2
0 0 0 0 0 0 0 0 0 0 0 0 0 0 0 0 0 0 0 1 2 3 3 2 2 4 6 5 5 6 7 6 6 6 6 5 2 0 0 0 0 1 1 3 3 3 3 3 3
0 0 0 0 0 0 0 0 0 0 0 0 0 0 0 0 0 0 0 1 2 2 1 1 2 3 5 4 4 5 6 5 5 4 5 4 2 0 0 0 0 0 1 2 3 3 3 3 3
0 0 0 0 0 0 0 0 0 0 0 0 0 0 0 0 1 0 0 1 1 1 1 1 2 3 3 2 2 3 4 5 4 3 3 3 2 1 1 0 0 0 1 1 3 3 3 3 3
0 0 0 0 0 0 0 0 0 0 0 0 0 0 0 0 0 0 0 0 1 1 1 1 2 3 1 1 1 2 3 3 3 2 2 2 2 2 2 1 0 0 1 1 2 3 3 3 2
0 0 0 0 0 0 0 0 0 0 0 0 0 0 0 0 0 0 0 0 1 1 1 1 2 3 1 0 1 2 2 2 1 1 1 1 1 1 2 1 1 1 1 1 2 3 3 2 1
0 0 0 0 0 0 0 0 0 0 0 0 0 0 0 0 0 0 1 2 2 2 1 1 2 3 2 0 0 1 2 1 1 0 1 1 0 0 1 1 1 1 2 1 2 3 2 1 1
0 0 0 0 0 0 0 0 0 0 0 0 0 0 0 1 1 1 2 3 3 4 3 1 2 2 1 0 0 0 1 1 0 0 0 0 0 0 0 0 0 1 2 2 3 3 2 1 1
0 0 0 0 0 0 0 0 0 0 0 1 1 1 0 0 1 2 3 3 4 4 3 1 1 1 0 0 0 0 0 0 0 0 0 0 0 0 0 0 0 0 1 2 3 3 2 1 0
0 0 0 0 0 0 0 0 0 0 0 1 2 2 0 0 1 2 3 3 3 3 2 1 0 0 0 0 0 0 0 0 0 0 0 0 0 0 0 0 0 0 0 1 2 2 2 1 0
0 0 0 0 0 0 0 0 0 0 0 1 1 1 0 0 1 2 3 2 1 1 1 1 0 0 0 0 0 0 0 0 0 0 0 0 0 0 0 0 0 0 0 0 1 1 1 0 0
0 0 0 0 0 0 0 0 0 0 0 0 0 0 0 0 0 1 1 2 1 0 0 0 0 0 0 0 0 0 0 0 0 0 0 0 0 0 0 0 0 0 0 0 0 0 0 0 0
0 0 0 0 0 0 0 0 0 0 0 0 0 0 0 0 0 0 1 1 1 0 0 0 0 0 0 0 0 0 0 0 0 0 0 0 0 0 0 0 0 0 0 0 0 0 0 0 0
0 0 0 0 0 0 0 0 0 0 0 0 0 0 0 0 0 0 0 0 0 0 0 0 0 0 0 0 0 0 0 0 0 0 0 0 0 0 0 0 0 0 0 0 0 0 0 0 0
0 0 0 0 0 0 0 0 0 0 0 0 0 0 0 0 0 0 0 0 0 0 0 0 0 0 0 0 0 0 0 0 0 0 0 0 0 0 0 0 0 0 0 0 0 0 0 0 0
0 0 0 0 0 0 0 0 0 0 0 0 0 0 0 0 0 0 0 0 0 0 0 0 0 0 0 0 0 0 0 0 0 0 0 0 0 0 0 0 0 0 0 0 0 0 0 0 0
0 0 0 0 0 0 0 0 0 0 0 0 0 0 0 0 0 0 0 0 0 0 0 0 0 0 0 0 0 0 0 0 0 0 0 0 0 0 0 0 0 0 0 0 0 0 0 1 1
0 0 0 0 0 0 0 0 0 0 0 0 0 0 0 0 0 0 0 0 0 0 0 0 0 0 0 0 0 0 0 0 0 0 0 0 0 0 0 0 0 0 0 0 0 0 0 0 0
0 0 0 0 0 0 0 0 0 0 0 0 0 0 0 0 0 0 0 0 0 0 0 0 0 0 0 0 0 0 0 0 0 0 0 0 0 0 0 0 0 0 0 0 0 0 0 0 0
0 0 0 0 0 0 0 0 0 0 0 0 0 0 0 0 0 0 0 0 0 0 0 0 0 0 0 0 0 0 0 0 0 0 0 0 0 0 0 0 0 0 0 0 0 0 0 0 0
0 0 0 0 0 0 0 0 0 0 0 0 0 0 0 0 0 0 0 0 0 0 0 0 0 0 0 0 0 0 0 0 0 0 0 0 0 0 0 0 0 0 0 0 0 0 0 0 0
0 0 0 0 0 0 0 0 0 0 0 0 0 0 0 0 0 0 0 0 0 0 0 0 0 0 0 0 0 0 0 0 0 0 0 0 0 0 0 0 0 0 0 0 0 0 0 0 0
0 0 0 0 0 0 0 0 0 0 0 0 0 0 0 0 0 0 0 0 0 0 0 0 0 0 0 0 0 0 0 0 0 0 0 0 0 0 0 0 0 0 0 0 0 0 0 0 0
0 0 0 0 0 0 0 0 0 0 0 0 0 0 0 0 0 0 0 0 0 0 0 0 0 0 0 0 0 0 0 0 0 0 0 0 0 0 0 0 0 0 0 0 0 0 0 0 0
0 0 0 0 0 0 0 0 0 0 0 0 0 0 0 0 0 0 0 0 0 0 0 0 0 0 0 0 0 0 0 0 0 0 0 0 0 0 0 0 0 0 0 0 0 0 0 0 0
0 0 0 0 0 0 0 0 0 0 0 0 0 0 0 0 0 0 0 0 0 0 0 0 0 0 0 0 0 0 0 0 0 0 0 0 0 0 0 0 0 0 0 0 0 0 0 0 0
0 0 0 0 0 0 0 0 0 0 0 0 0 0 0 0 0 0 0 0 0 0 0 0 0 0 0 0 0 0 0 0 0 0 0 0 0 0 0 0 0 0 0 0 0 0 0 0 0
0 0 0 0 0 0 0 0 0 0 0 0 0 0 0 0 0 0 0 0 0 0 0 0 0 0 0 0 0 0 0 0 0 0 0 0 0 0 0 0 0 0 0 0 0 0 0 0 0
0 0 0 0 0 0 0 0 0 0 0 0 0 0 0 0 0 0 0 0 0 0 0 0 0 0 0 0 0 0 0 0 0 0 0 0 0 0 0 0 0 0 0 0 0 0 0 0 0
0 0 0 0 0 0 0 0 0 0 0 0 0 0 0 0 0 0 0 0 0 0 0 0 0 0 0 0 0 0 0 0 0 0 0 0 0 0 0 0 0 0 0 0 0 0 0 0 0
Wind_Speed
11 9 6 2 2 4 7 6 4 1 2 5 6 5 5 6 5 6 3 5 6 6 6 6 7 8 7 7 7 7 6 6 6 6 6 5 6 5 6 6 6 6 6 6 7 7 7 8 8
9 7 3 2 3 5 6 6 2 3 4 4 4 3 3 6 6 7 3 4 5 6 6 6 7 7 7 7 7 7 7 6 6 5 5 5 5 5 5 5 5 5 5 6 6 6 7 7 7
9 6 3 3 4 5 5 1 3 5 5 3 3 4 4 5 5 4 3 4 5 6 7 7 8 7 7 7 7 7 7 7 6 5 5 5 5 5 4 4 4 5 5 5 5 6 6 6 6
4 3 3 4 8 7 6 3 4 3 3 3 2 3 5 5 4 5 4 4 5 7 6 6 7 7 7 7 6 6 6 6 6 5 5 5 4 4 4 4 4 4 4 4 5 5 5 5 5
3 3 4 6 9 7 4 1 3 1 1 1 1 2 4 4 7 7 4 4 6 6 5 6 7 7 7 7 6 6 6 6 5 4 5 5 4 4 4 4 3 3 4 3 3 4 4 4 4
3 3 4 7 8 7 4 0 1 0 1 1 1 1 4 5 6 5 4 4 6 6 5 5 6 7 7 6 6 5 5 5 5 4 4 4 4 4 3 3 3 3 3 3 3 3 3 3 3
3 3 6 7 6 5 2 2 1 1 1 1 1 1 4 4 5 4 3 4 5 6 5 4 4 5 6 6 6 6 4 4 4 4 4 4 4 3 2 3 3 2 2 2 1 2 2 2 2
2 3 5 7 7 4 1 3 3 3 2 3 3 1 3 4 4 3 4 4 5 5 5 4 4 4 3 3 5 5 4 3 3 3 3 3 4 3 3 2 2 2 1 1 1 1 1 2 2
2 3 5 5 4 1 3 2 3 3 2 2 4 3 4 6 4 4 3 3 3 4 4 4 4 3 2 2 3 3 3 2 2 2 2 2 1 1 1 1 2 2 1 1 0 1 1 1 1
2 4 5 2 3 2 2 2 2 1 1 1 1 4 5 5 4 3 3 2 3 3 3 3 3 3 2 2 1 1 1 1 0 0 1 0 0 0 1 1 1 1 1 1 1 2 1 1 1
3 4 3 3 4 3 2 2 1 2 3 2 1 3 4 3 2 2 2 2 2 2 2 2 2 2 2 1 1 1 1 1 1 1 1 0 0 0 0 0 0 0 0 0 1 1 1 1 1
4 4 3 3 3 3 2 2 2 4 3 2 1 3 3 3 2 2 2 2 2 2 2 2 2 2 1 1 1 1 1 1 1 1 2 1 0 0 0 0 0 0 0 1 1 1 1 1 1
7 4 3 2 2 2 2 4 4 5 3 1 1 2 3 3 2 2 1 2 2 2 2 1 1 1 1 1 1 1 1 1 1 1 1 1 1 0 0 0 0 0 0 1 1 1 1 1 1
3 2 3 3 3 2 4 5 4 5 2 2 2 3 3 3 3 2 2 2 2 2 2 1 1 1 1 1 1 1 1 1 1 1 1 1 1 1 0 0 0 1 1 1 1 1 2 2 2
3 4 5 5 5 3 2 6 6 6 5 4 4 4 4 3 3 3 2 2 2 2 2 1 1 1 1 1 1 0 0 0 0 1 1 1 1 1 1 1 1 1 1 1 2 2 1 1 1
5 5 5 5 5 4 3 7 2 3 4 4 4 4 3 3 3 3 2 1 1 2 2 1 1 1 0 0 1 1 1 1 1 1 1 1 1 1 1 1 1 1 1 1 1 1 1 1 1
5 5 5 3 4 4 5 6 3 2 3 3 3 3 2 2 2 2 2 2 1 2 3 2 1 1 0 0 1 1 1 1 1 1 1 1 1 1 1 1 1 1 1 1 2 1 1 1 1
4 5 5 4 2 3 6 7 4 4 5 4 3 2 2 2 1 2 2 1 1 1 2 2 1 1 0 0 1 1 1 1 1 1 1 1 1 2 1 1 2 1 1 1 1 1 1 1 1
5 6 7 4 2 4 7 8 7 4 4 4 3 2 1 1 1 2 2 1 1 1 1 1 1 1 1 0 0 1 1 1 1 1 1 2 2 2 2 2 2 2 2 2 2 1 1 1 1
5 6 7 4 2 4 6 9 7 5 4 3 3 2 1 1 1 1 2 1 1 1 0 1 1 1 1 1 1 1 1 1 2 2 2 2 2 2 2 2 2 2 2 2 2 1 1 1 1
6 5 5 5 5 5 5 7 7 5 4 4 3 2 1 2 1 1 1 1 1 1 1 1 1 1 1 1 1 1 1 1 1 2 2 3 3 3 3 3 3 3 2 3 3 3 2 2 2
4 3 5 5 4 3 2 4 4 3 2 2 2 1 1 1 1 1 1 1 1 1 1 1 1 1 1 1 1 2 2 2 3 2 2 3 3 3 3 3 4 3 3 3 3 3 3 2 2
2 4 4 4 4 5 4 4 5 4 3 3 2 1 0 0 0 0 1 1 0 1 0 1 1 1 1 1 2 2 3 3 2 2 3 3 3 3 3 3 3 3 3 3 3 3 3 2 3
2 3 4 4 2 4 6 6 4 2 3 2 1 2 2 2 1 1 1 1 1 1 0 1 1 2 1 2 2 3 3 3 3 3 3 3 2 2 3 3 2 3 3 4 3 3 4 4 3
1 1 1 1 2 5 3 4 4 1 3 2 1 2 2 2 2 2 2 1 1 1 1 1 2 2 2 2 3 3 4 4 4 4 3 3 3 2 3 3 2 3 3 4 4 3 4 4 3
2 2 1 2 3 2 1 4 1 2 3 3 2 2 2 3 2 2 1 1 1 1 1 2 2 3 2 2 3 3 4 3 3 4 3 4 3 3 3 3 3 3 3 3 3 3 4 3 3
1 2 1 1 3 4 5 3 1 1 2 2 3 4 3 3 3 2 2 2 2 2 2 2 3 3 3 3 3 3 3 3 4 4 4 3 3 3 3 3 3 3 3 3 3 3 3 3 3
2 1 0 1 2 4 4 3 2 1 1 1 2 3 3 4 3 2 2 2 2 2 2 2 3 3 3 3 4 3 3 3 3 3 3 3 3 3 3 3 3 3 3 3 3 2 2 3 3
1 1 1 2 3 3 4 2 1 2 2 1 2 3 3 4 3 2 3 2 3 2 2 3 3 3 3 3 4 4 4 3 3 3 3 3 3 3 3 3 3 3 3 3 3 3 3 3 3
1 1 2 2 3 3 3 4 1 3 3 2 2 3 4 4 3 3 3 3 3 3 3 3 3 3 3 3 4 4 4 3 3 3 3 2 3 3 3 3 3 3 3 3 3 3 3 4 4
Wind_Direction
295 273 257 252 241 231 241 250 256 292 46 40 27 20 25 26 36 105 128 70 74 86 91 81 71 72 76 75 74 73 78 81 88 90 89 94 94 92 91 87 86 82 77 75 80 84 83 79 77
286 275 258 239 238 235 237 234 266 31 59 50 35 24 44 69 69 94 87 69 80 91 90 81 72 71 72 75 75 72 72 78 84 91 93 94 97 100 99 94 90 84 78 76 77 81 84 81 79
271 263 247 229 229 239 265 25 85 70 66 63 48 26 42 65 80 89 83 79 80 86 85 80 70 68 71 75 75 72 71 71 73 79 91 94 89 95 102 100 93 87 80 76 75 81 86 83 81
259 233 244 241 242 246 271 321 79 75 74 68 64 67 75 54 67 88 85 74 79 84 87 85 73 69 69 72 75 75 72 70 70 68 73 80 83 81 86 89 89 87 83 80 80 85 90 89 85
248 237 223 234 245 258 273 317 81 68 108 105 116 97 81 71 79 86 82 74 76 78 84 96 79 72 68 67 72 77 75 72 69 69 69 66 68 71 73 79 89 93 90 90 94 97 102 101 96
241 240 231 233 239 240 254 314 86 4 263 125 102 114 98 105 89 87 79 74 75 80 79 93 80 75 68 64 62 65 76 76 73 69 66 61 56 60 74 79 80 93 102 101 102 105 117 116 111
255 246 246 252 253 250 267 45 67 308 291 16 47 103 124 111 86 88 80 71 74 79 83 87 86 79 71 62 57 54 62 75 75 70 65 61 56 51 67 83 74 76 96 110 118 122 128 130 127
287 278 253 253 258 262 360 45 46 19 3 5 8 65 123 122 104 91 81 70 70 72 75 75 74 72 66 67 60 49 47 58 71 66 58 60 65 55 53 71 72 67 64 93 131 152 166 161 153
281 249 246 253 266 295 75 71 42 31 25 7 18 34 94 119 115 104 90 75 74 71 69 69 63 59 57 62 58 49 43 44 75 82 50 47 67 88 80 76 64 63 63 42 257 225 202 170 182
220 231 239 289 332 356 26 35 40 308 234 241 89 80 97 112 123 125 120 108 88 72 62 64 58 46 39 48 61 37 30 5 2 113 100 73 18 11 62 94 71 26 11 357 306 262 224 185 190
212 234 261 315 349 4 355 335 317 264 255 254 176 126 115 120 126 136 131 121 114 99 72 61 69 50 34 22 46 25 8 0 3 16 19 17 353 348 39 123 159 242 321 311 319 275 216 215 199
232 248 279 295 335 355 327 317 292 267 281 335 64 129 141 150 161 170 161 135 112 100 83 56 65 66 40 21 15 19 18 4 19 13 6 360 316 301 304 144 257 205 255 274 256 245 216 243 232
234 236 246 281 307 301 294 270 276 269 277 320 114 152 176 181 184 182 157 124 105 109 109 88 61 67 48 34 351 19 18 7 2 352 335 342 324 307 310 270 30 287 277 264 260 249 232 228 230
260 267 262 252 251 242 255 260 248 252 233 205 197 202 201 199 191 176 163 145 133 113 112 110 89 67 48 30 5 14 355 332 330 335 320 332 341 319 296 299 254 287 262 255 252 260 250 230 232
276 258 253 235 230 202 250 263 230 224 216 214 217 215 204 201 182 180 171 157 152 151 138 128 120 83 57 14 337 353 283 306 297 296 307 318 330 320 300 270 254 253 263 258 243 245 257 252 247
235 237 236 204 197 177 197 258 214 192 202 215 222 219 206 192 176 168 146 137 140 146 139 134 110 75 37 343 287 262 240 264 267 278 296 297 305 308 305 270 253 267 264 263 244 221 247 256 256
219 234 233 212 198 183 207 251 214 198 220 233 234 215 190 177 160 126 116 123 133 149 148 144 136 145 41 304 278 263 220 241 259 254 273 292 297 301 288 279 270 272 266 271 268 237 218 256 262
238 253 257 235 220 242 248 261 245 221 226 234 232 203 179 172 165 133 126 126 111 99 133 137 142 150 198 246 284 293 264 244 248 241 232 262 278 287 285 269 282 269 257 267 270 261 238 253 257
286 280 280 286 299 271 259 264 261 249 236 235 225 212 195 182 148 134 130 127 118 95 101 150 167 178 176 223 264 260 271 272 268 241 237 233 242 252 250 266 279 264 240 244 256 269 256 254 262
273 273 275 283 268 278 272 268 262 240 232 229 226 216 204 217 180 143 139 136 137 146 173 184 193 197 195 212 244 238 250 258 268 268 251 243 234 237 242 236 250 257 249 251 251 248 244 254 208
266 265 282 293 304 266 276 271 235 203 206 212 212 199 199 200 216 170 139 125 142 183 216 248 227 214 207 209 243 277 280 275 271 271 254 252 245 238 238 239 240 245 240 242 243 231 229 239 244
272 313 304 299 294 272 248 283 253 187 198 180 181 175 197 210 214 212 148 146 184 221 219 244 233 223 212 204 227 238 249 252 255 259 253 252 245 238 236 235 237 244 242 241 250 245 236 220 231
290 326 296 278 271 283 248 250 259 195 206 200 185 156 12 10 201 199 144 132 116 72 24 253 251 269 244 235 229 242 254 261 264 264 264 264 255 241 237 235 234 238 244 241 243 253 241 231 229
308 308 275 245 254 261 230 218 258 210 196 142 81 51 32 21 37 53 78 84 84 78 20 300 266 271 264 250 247 243 250 256 263 266 268 267 261 250 245 241 237 238 239 237 237 244 243 235 235
278 1 341 265 221 243 212 213 239 119 85 97 79 42 43 34 34 31 35 33 23 10 313 305 309 282 275 263 258 252 249 247 246 255 257 263 264 262 256 252 248 246 242 236 232 234 245 237 231
236 229 201 251 266 298 302 233 206 92 76 64 77 70 56 31 19 23 27 8 345 324 322 317 308 299 290 271 267 262 253 245 246 252 256 255 256 257 254 249 252 251 246 250 239 232 241 233 227
222 230 306 277 282 271 240 210 150 102 84 65 57 47 37 24 13 14 13 354 334 321 312 307 303 299 298 289 274 268 262 251 247 254 255 255 257 264 256 248 250 254 245 239 239 238 243 237 231
302 308 71 211 269 275 260 227 216 178 120 65 48 30 16 11 2 8 354 341 328 316 310 305 295 291 292 298 288 282 274 263 254 256 261 260 260 263 261 254 249 252 252 241 235 240 241 245 244
198 219 245 257 259 264 283 271 21 113 101 89 21 8 356 343 338 339 333 329 317 310 313 308 300 299 298 293 289 286 280 271 263 258 260 263 260 260 265 262 256 253 251 244 240 242 244 245 248
277 238 196 216 263 243 264 265 12 84 66 41 3 353 343 339 331 334 329 326 321 321 319 316 315 311 306 299 289 282 281 281 273 267 265 266 268 264 266 271 266 264 261 248 239 242 242 241 245